{"data":{"norad_id":57995,"epoch":"2026-09-20T20:52:08.608512Z","epoch_age_seconds":105692,"freshness":"FRESH","line1":"1 57995U 23153E   26263.86954408  .00000020  00000+0  10234-4 0  9997","line2":"2 57995  43.0012  45.0305 0001115 264.4132  95.6592 15.27576010164746","mean_motion":15.2757601,"eccentricity":0.0001115,"inclination_deg":43.0012,"raan_deg":45.0305,"arg_perigee_deg":264.4132,"mean_anomaly_deg":95.6592,"bstar":1.0234e-5,"rev_number":16474,"period_min":94.266994936638,"perigee_km":482.2960199792,"apogee_km":483.82606714291,"semimajor_km":6861.1980435611,"source":"CELESTRAK","updated_at":"2026-09-21T09:00:33.753814Z"}}